Solomons Island, MD NWLON current weather conditions

sailwx.info

Wind from 345 at 2 knots gusting 4

Air temperature 7.2° C
Water temperature 8.9° C

Last reported at 2019-Dec-05 23:36 UTC.
Time now 2019-Dec-06 01:01 UTC

Location: N 38°19' W 076°27'.
View on Google Maps.

See reports from other nearby stations

  
Tides and Currents Weather Stations Pressure Air Temp Water Temp Dewpoint Dewpoint Depression Visibility Wind Speed Wind Dir Waves Ship Positions
date/time (UTC)wind fromknots sea level pressurealtimeterstation pressurevisibilityair tempwater tempwave heightnotes
2019-Dec-05 23:36 345 2 gusting 4 7.2 8.9
2019-Dec-05 23:30 314 3 gusting 6 7.2 8.9
2019-Dec-05 23:24 327 5 gusting 7 7.2 8.9
2019-Dec-05 23:18 329 5 gusting 6 7.2 8.9
2019-Dec-05 23:12 317 5 gusting 6 7.2 8.9
2019-Dec-05 23:06 303 3 gusting 6 7.2 8.9
2019-Dec-05 23:00 307 3 gusting 5 7.2 8.9
2019-Dec-05 22:54 302 4 gusting 6 7.2 8.9
2019-Dec-05 22:48 300 2 gusting 5 7.2 8.9
2019-Dec-05 22:42 293 3 gusting 5 7.2 8.9
2019-Dec-05 22:36 280 3 gusting 6 7.2 8.9
2019-Dec-05 22:30 283 3 gusting 5 7.8 8.9
2019-Dec-05 22:24 300 2 gusting 7 7.8 8.9
2019-Dec-05 22:18 292 4 gusting 7 7.8 8.9
2019-Dec-05 22:12 298 4 gusting 6 7.8 8.9
2019-Dec-05 22:06 280 3 gusting 5 7.8 8.9
2019-Dec-05 22:00 276 2 gusting 5 7.8 8.9
2019-Dec-05 21:54 273 3 gusting 5 7.8 8.9
2019-Dec-05 21:48 284 2 gusting 3 7.8 8.9
2019-Dec-05 21:42 312 2 gusting 5 7.8 8.9
2019-Dec-05 21:36 316 3 gusting 6 8.3 8.9
2019-Dec-05 21:30 321 6 gusting 11 8.3 8.9
2019-Dec-05 21:24 318 5 gusting 9 8.3 8.9
2019-Dec-05 21:18 308 6 gusting 12 8.3 8.9
2019-Dec-05 21:12 310 8 gusting 12 8.3 8.9
2019-Dec-05 21:06 307 6 gusting 12 8.3 8.9
2019-Dec-05 21:00 308 7 gusting 12 8.3 8.9
2019-Dec-05 20:54 297 6 gusting 10 8.3 8.9
2019-Dec-05 20:48 302 5 gusting 11 8.3 8.9
2019-Dec-05 20:42 297 6 gusting 11 8.3 8.9
2019-Dec-05 20:36 316 7 gusting 12 8.3 8.9
2019-Dec-05 20:30 310 8 gusting 13 8.3 8.9
2019-Dec-05 20:24 298 9 gusting 14 8.9 8.9
2019-Dec-05 20:18 301 7 gusting 14 8.3 8.9
2019-Dec-05 20:12 314 7 gusting 14 8.3 8.9
2019-Dec-05 20:06 305 9 gusting 13 8.3 8.9
2019-Dec-05 20:00 301 6 gusting 13 8.9 8.9
2019-Dec-05 19:54 299 6 gusting 13 8.3 8.9
2019-Dec-05 19:48 285 8 gusting 13 8.3 8.9
2019-Dec-05 19:42 275 8 gusting 15 8.3 8.9
2019-Dec-05 19:36 304 11 gusting 14 8.3 8.9
2019-Dec-05 19:30 289 12 gusting 18 8.3 8.9
2019-Dec-05 19:24 285 10 gusting 16 8.3 8.9
2019-Dec-05 19:18 294 13 gusting 18 8.3 8.9
2019-Dec-05 19:12 307 11 gusting 16 8.3 8.9
2019-Dec-05 19:06 302 9 gusting 18 8.3 8.9
2019-Dec-05 19:00 313 10 gusting 14 7.8 8.9
2019-Dec-05 18:54 318 11 gusting 17 7.8 8.9
2019-Dec-05 18:48 315 10 gusting 18 7.8 8.9
2019-Dec-05 18:42 302 8 gusting 16 7.8 8.9
2019-Dec-05 18:36 298 7 gusting 13 8.3 8.9
2019-Dec-05 18:30 313 9 gusting 14 7.8 8.9
2019-Dec-05 18:24 302 9 gusting 13 7.8 8.9
2019-Dec-05 18:18 290 9 gusting 13 7.8 8.9
2019-Dec-05 18:12 293 9 gusting 16 7.8 8.9
2019-Dec-05 18:06 304 10 gusting 14 7.2 8.9
2019-Dec-05 18:00 298 7 gusting 17 7.2 8.9
2019-Dec-05 17:54 308 9 gusting 18 7.2 8.9
2019-Dec-05 17:48 302 6 gusting 9 7.8 8.9
2019-Dec-05 17:42 290 8 gusting 15 7.2 8.9
2019-Dec-05 17:36 294 10 gusting 17 7.2 8.9
2019-Dec-05 17:30 300 7 gusting 16 7.2 8.9
2019-Dec-05 17:24 305 8 gusting 16 7.2 8.9
2019-Dec-05 17:18 305 12 gusting 17 7.2 8.9
2019-Dec-05 17:12 320 14 gusting 21 6.7 8.9
2019-Dec-05 17:06 310 9 gusting 17 6.7 8.9
2019-Dec-05 17:00 306 12 gusting 17 6.7 8.9
2019-Dec-05 16:54 313 10 gusting 17 6.7 8.9
2019-Dec-05 16:48 318 11 gusting 17 6.7 8.9
2019-Dec-05 16:42 319 12 gusting 18 6.7 8.9
2019-Dec-05 16:36 303 11 gusting 19 6.7 8.9
2019-Dec-05 16:30 314 10 gusting 13 6.7 8.9
2019-Dec-05 16:24 298 13 gusting 16 6.7 8.9
2019-Dec-05 16:18 310 9 gusting 13 6.7 8.9
2019-Dec-05 16:12 312 8 gusting 12 6.7 8.9
2019-Dec-05 16:06 306 8 gusting 13 6.7 8.9
2019-Dec-05 16:00 320 9 gusting 14 6.7 8.9
2019-Dec-05 15:54 302 10 gusting 18 6.7 8.9
2019-Dec-05 15:48 297 11 gusting 17 6.7 8.9
2019-Dec-05 15:42 305 9 gusting 15 6.7 8.9
2019-Dec-05 15:36 304 6 gusting 13 6.7 8.9
2019-Dec-05 15:30 293 9 gusting 13 6.7 8.9
2019-Dec-05 15:24 292 6 gusting 14 6.7 8.9
2019-Dec-05 15:18 270 13 gusting 15 6.7 8.9
2019-Dec-05 15:12 282 11 gusting 16 6.7 8.9
2019-Dec-05 15:06 284 8 gusting 17 6.7 8.9
2019-Dec-05 15:00 279 9 gusting 15 6.7 8.9
2019-Dec-05 14:54 282 9 gusting 13 6.7 8.9
2019-Dec-05 14:48 278 8 gusting 13 6.7 8.9
2019-Dec-05 14:42 272 11 gusting 20 6.1 8.9
2019-Dec-05 14:36 271 9 gusting 13 6.1 8.9
2019-Dec-05 14:30 286 8 gusting 14 6.1 8.9
2019-Dec-05 14:24 282 8 gusting 14 5.6 8.9
2019-Dec-05 14:18 292 7 gusting 11 5.6 8.9
2019-Dec-05 14:12 283 7 gusting 12 5.6 8.9
2019-Dec-05 14:06 292 8 gusting 14 5.6 8.9
2019-Dec-05 14:00 290 7 gusting 12 5.6 8.9
2019-Dec-05 13:54 285 6 gusting 12 5.6 8.9
2019-Dec-05 13:48 279 6 gusting 13 5.6 8.9
2019-Dec-05 13:42 276 7 gusting 14 5.0 8.9
2019-Dec-05 13:36 280 8 gusting 11 5.0 8.9
2019-Dec-05 13:30 274 8 gusting 10 5.6 8.9
2019-Dec-05 13:24 282 6 gusting 13 5.6 8.9
2019-Dec-05 13:18 277 6 gusting 10 5.0 8.9
2019-Dec-05 13:12 282 6 gusting 11 5.6 8.9
2019-Dec-05 13:06 272 6 gusting 13 5.6 8.9
2019-Dec-05 13:00 273 8 gusting 13 5.0 8.9
2019-Dec-05 12:54 274 8 gusting 13 5.0 8.9
2019-Dec-05 12:48 267 9 gusting 13 5.0 8.9
2019-Dec-05 12:42 271 10 gusting 13 5.0 8.9
2019-Dec-05 12:36 269 9 gusting 13 5.0 8.9
2019-Dec-05 12:30 290 7 gusting 14 5.0 8.9
2019-Dec-05 12:24 294 10 gusting 13 5.0 8.9
2019-Dec-05 12:18 291 9 gusting 17 5.0 8.9
2019-Dec-05 12:12 293 10 gusting 15 5.0 8.9
2019-Dec-05 12:06 291 11 gusting 18 5.0 8.9
2019-Dec-05 12:00 293 11 gusting 17 5.0 8.9
2019-Dec-05 11:54 300 9 gusting 13 5.0 8.9
2019-Dec-05 11:48 285 7 gusting 12 5.0 8.9
2019-Dec-05 11:42 282 8 gusting 17 5.0 8.9
2019-Dec-05 11:36 278 9 gusting 16 5.0 8.9
2019-Dec-05 11:30 275 9 gusting 15 5.0 8.9
2019-Dec-05 11:24 275 10 gusting 13 5.0 8.9
2019-Dec-05 11:18 274 10 gusting 15 5.0 8.9
2019-Dec-05 11:12 269 9 gusting 13 5.0 8.9
2019-Dec-05 11:06 269 9 gusting 13 5.0 8.9
2019-Dec-05 11:00 269 8 gusting 14 5.0 8.9
2019-Dec-05 10:54 270 8 gusting 13 5.0 8.9
2019-Dec-05 10:48 274 7 gusting 13 5.0 8.9
2019-Dec-05 10:42 278 7 gusting 11 5.0 8.9
2019-Dec-05 10:36 275 7 gusting 12 5.6 8.9
2019-Dec-05 10:30 274 9 gusting 13 5.6 8.9
2019-Dec-05 10:24 281 6 gusting 11 5.6 8.9
2019-Dec-05 10:18 289 6 gusting 13 5.6 8.9
2019-Dec-05 10:12 278 6 gusting 12 5.6 8.9
2019-Dec-05 10:06 290 6 gusting 14 5.6 8.9
2019-Dec-05 10:00 290 6 gusting 14 5.6 8.9
2019-Dec-05 09:54 286 9 gusting 14 5.6 8.9
2019-Dec-05 09:48 282 9 gusting 15 5.6 8.9
2019-Dec-05 09:42 289 10 gusting 19 5.6 8.9
2019-Dec-05 09:36 293 9 gusting 14 5.6 8.9
2019-Dec-05 09:30 290 11 gusting 17 5.6 8.9
2019-Dec-05 09:24 286 13 gusting 21 5.6 8.9
2019-Dec-05 09:18 299 9 gusting 17 5.6 8.9
2019-Dec-05 09:12 305 11 gusting 16 5.6 8.9
2019-Dec-05 09:06 301 13 gusting 19 5.6 8.9
2019-Dec-05 09:00 299 11 gusting 18 5.6 9.4
2019-Dec-05 08:54 299 11 gusting 20 5.6 8.9
2019-Dec-05 08:48 293 12 gusting 21 5.6 8.9
2019-Dec-05 08:42 285 11 gusting 21 6.1 8.9
2019-Dec-05 08:36 299 13 gusting 22 6.1 8.9
2019-Dec-05 08:30 300 11 gusting 19 6.1 8.9
2019-Dec-05 08:24 295 13 gusting 21 6.1 8.9
2019-Dec-05 08:18 274 11 gusting 16 6.1 8.9
2019-Dec-05 08:12 307 10 gusting 15 6.1 8.9
2019-Dec-05 08:06 304 10 gusting 14 6.1 8.9
2019-Dec-05 08:00 312 7 gusting 12 6.1 8.9
2019-Dec-05 07:54 299 6 gusting 14 6.1 9.4
2019-Dec-05 07:48 294 6 gusting 9 6.1 9.4
2019-Dec-05 07:42 293 6 gusting 11 6.1 9.4
2019-Dec-05 07:36 273 8 gusting 13 6.1 9.4
2019-Dec-05 07:30 277 9 gusting 14 6.7 9.4
2019-Dec-05 07:24 275 9 gusting 13 6.7 9.4
2019-Dec-05 07:18 279 8 gusting 13 6.7 9.4
2019-Dec-05 07:12 281 7 gusting 13 6.7 9.4
2019-Dec-05 07:06 281 8 gusting 12 6.7 9.4
2019-Dec-05 07:00 283 6 gusting 13 6.7 9.4
2019-Dec-05 06:54 281 9 gusting 14 6.7 9.4
2019-Dec-05 06:48 295 8 gusting 13 6.7 9.4
2019-Dec-05 06:42 304 9 gusting 14 6.7 9.4
2019-Dec-05 06:36 285 7 gusting 13 6.7 9.4
2019-Dec-05 06:30 299 6 gusting 11 6.7 9.4
2019-Dec-05 06:24 317 7 gusting 13 6.7 9.4
2019-Dec-05 06:18 314 9 gusting 15 6.7 9.4
2019-Dec-05 06:12 312 9 gusting 14 6.7 9.4
2019-Dec-05 06:06 323 10 gusting 16 6.7 9.4
2019-Dec-05 06:00 313 13 gusting 18 6.7 9.4
2019-Dec-05 05:54 302 11 gusting 19 7.2 9.4
2019-Dec-05 05:48 289 9 gusting 16 7.2 9.4
2019-Dec-05 05:42 275 6 gusting 10 6.7 9.4
2019-Dec-05 05:36 279 4 gusting 6 6.1 9.4
2019-Dec-05 05:30 261 5 gusting 6 6.1 9.4
2019-Dec-05 05:24 281 1 gusting 4 5.6 9.4
2019-Dec-05 05:18 332 0 gusting 2 5.0 9.4
2019-Dec-05 05:12 265 1 gusting 3 5.0 9.4
2019-Dec-05 05:06 310 0 gusting 2 5.0 8.9
2019-Dec-05 05:00 266 2 gusting 3 5.0 8.9
2019-Dec-05 04:54 255 3 gusting 3 4.4 8.9
2019-Dec-05 04:48 240 2 gusting 3 4.4 8.9
2019-Dec-05 04:42 252 1 gusting 2 4.4 8.9
2019-Dec-05 04:36 268 2 gusting 2 4.4 8.9
2019-Dec-05 04:30 262 0 gusting 1 3.9 8.9
2019-Dec-05 04:24 298 1 gusting 2 3.9 8.9
2019-Dec-05 04:18 304 2 gusting 3 3.9 8.9
2019-Dec-05 04:12 314 2 gusting 3 3.9 8.9
2019-Dec-05 04:06 300 1 gusting 2 4.4 8.9
2019-Dec-05 04:00 288 0 gusting 1 4.4 8.9
2019-Dec-05 03:54 323 4.4 9.4
2019-Dec-05 03:48 004 2 gusting 3 4.4 9.4
2019-Dec-05 03:42 244 4.4 9.4
2019-Dec-05 03:36 014 5.0 9.4
2019-Dec-05 03:30 005 1 gusting 2 5.0 9.4
2019-Dec-05 03:24 009 1 gusting 1 5.0 9.4
2019-Dec-05 03:18 002 0 gusting 1 5.0 9.4
2019-Dec-05 03:12 001 5.0 9.4
2019-Dec-05 03:06 003 1 gusting 2 5.0 9.4
2019-Dec-05 03:00 282 0 gusting 1 5.6 9.4
2019-Dec-05 02:54 257 0 gusting 0 5.6 9.4
2019-Dec-05 02:48 318 5.6 9.4
2019-Dec-05 02:42 299 5.6 9.4
2019-Dec-05 02:36 254 1 gusting 2 5.6 9.4
2019-Dec-05 02:30 255 1 gusting 2 5.6 9.4
2019-Dec-05 02:24 268 1 gusting 1 5.6 9.4
2019-Dec-05 02:18 327 1 gusting 1 5.6 9.4
2019-Dec-05 02:12 336 1 gusting 1 5.6 9.4
2019-Dec-05 02:06 340 0 gusting 2 6.7 9.4
2019-Dec-05 02:00 264 1 gusting 2 6.7 9.4
2019-Dec-05 01:54 264 1 gusting 2 6.7 9.4
2019-Dec-05 01:48 252 1 gusting 2 6.7 9.4
2019-Dec-05 01:42 252 1 gusting 2 6.7 9.4
2019-Dec-05 01:36 257 2 gusting 3 6.7 9.4
2019-Dec-05 01:30 259 2 gusting 3 7.2 9.4
2019-Dec-05 01:24 264 2 gusting 3 7.2 9.4
2019-Dec-05 01:18 267 2 gusting 3 7.2 9.4
2019-Dec-05 01:12 253 2 gusting 3 7.2 9.4
2019-Dec-05 01:06 263 2 gusting 5 7.8 9.4
2019-Dec-05 01:00 275 2 gusting 4 7.8 9.4
2019-Dec-05 00:54 311 4 gusting 6 7.8 9.4
2019-Dec-05 00:48 321 3 gusting 5 7.8 9.4
2019-Dec-05 00:42 321 3 gusting 5 7.8 9.4
2019-Dec-05 00:36 315 2 gusting 4 7.8 9.4
2019-Dec-05 00:30 302 2 gusting 4 7.8 9.4
2019-Dec-05 00:24 290 3 gusting 5 7.8 9.4
2019-Dec-05 00:18 320 4 gusting 6 7.8 9.4
2019-Dec-05 00:12 272 5 gusting 7 7.8 9.4
2019-Dec-05 00:06 273 3 gusting 6 7.8 9.4
2019-Dec-05 00:00 263 4 gusting 6 7.8 9.4
2019-Dec-04 23:48 255 5 gusting 7 8.3 9.4
2019-Dec-04 23:42 261 6 gusting 8 8.3 9.4
2019-Dec-04 23:36 268 3 gusting 9 8.9 9.4
2019-Dec-04 23:30 284 2 gusting 4 8.3 9.4
2019-Dec-04 23:24 024 5 gusting 10 8.9 9.4
2019-Dec-04 23:18 353 7 gusting 10 8.3 9.4
2019-Dec-04 23:12 246 7 gusting 11 8.3 9.4
2019-Dec-04 23:06 233 8 gusting 13 8.3 9.4
2019-Dec-04 23:00 255 5 gusting 8 8.3 9.4
2019-Dec-04 22:54 230 6 gusting 8 8.9 9.4
2019-Dec-04 22:48 223 6 gusting 7 8.9 9.4
2019-Dec-04 22:42 203 6 gusting 9 9.4 9.4
2019-Dec-04 22:36 195 6 gusting 9 8.9 9.4
2019-Dec-04 22:30 102 0 gusting 3 8.9 9.4
2019-Dec-04 22:24 015 4 gusting 8 8.9 9.4
2019-Dec-04 22:18 341 6 gusting 7 8.9 9.4
2019-Dec-04 22:12 211 5 gusting 6 8.9 9.4
2019-Dec-04 22:06 210 5 gusting 6 8.9 9.4
2019-Dec-04 22:00 200 6 gusting 7 8.9 9.4
2019-Dec-04 21:54 202 7 gusting 9 8.9 9.4
2019-Dec-04 21:48 210 6 gusting 7 8.9 9.4
2019-Dec-04 21:42 206 6 gusting 7 8.9 9.4
2019-Dec-04 21:36 209 6 gusting 8 8.9 9.4
2019-Dec-04 21:30 206 6 gusting 7 8.9 9.4
2019-Dec-04 21:24 206 6 gusting 7 8.9 9.4
2019-Dec-04 21:18 206 6 gusting 8 8.9 9.4
2019-Dec-04 21:12 223 6 gusting 8 8.9 9.4
2019-Dec-04 21:06 213 8 gusting 11 9.4 9.4
2019-Dec-04 21:00 224 8 gusting 10 9.4 9.4
2019-Dec-04 20:54 220 7 gusting 8 9.4 9.4
2019-Dec-04 20:48 227 6 gusting 9 9.4 9.4
2019-Dec-04 20:42 224 7 gusting 13 9.4 9.4
2019-Dec-04 20:36 231 9 gusting 11 9.4 9.4
2019-Dec-04 20:30 230 9 gusting 11 9.4 9.4
2019-Dec-04 20:24 229 8 gusting 11 10.0 9.4
2019-Dec-04 20:18 238 7 gusting 9 9.4 9.4
2019-Dec-04 20:12 227 8 gusting 11 9.4 9.4
2019-Dec-04 20:06 240 7 gusting 11 9.4 9.4
2019-Dec-04 20:00 240 8 gusting 11 9.4 9.4
2019-Dec-04 19:54 247 7 gusting 12 9.4 9.4
2019-Dec-04 19:48 238 7 gusting 9 9.4 9.4
2019-Dec-04 19:42 232 9 gusting 12 9.4 9.4
2019-Dec-04 19:36 236 11 gusting 14 8.9 9.4
2019-Dec-04 19:30 241 10 gusting 13 8.9 9.4
2019-Dec-04 19:24 238 10 gusting 13 9.4 9.4
2019-Dec-04 19:18 253 10 gusting 14 8.9 9.4
2019-Dec-04 19:12 251 12 gusting 14 8.9 9.4
2019-Dec-04 19:06 249 10 gusting 13 8.9 9.4
2019-Dec-04 19:00 249 11 gusting 13 8.9 9.4
2019-Dec-04 18:54 226 13 gusting 15 8.3 9.4
2019-Dec-04 18:48 231 11 gusting 13 8.9 9.4
2019-Dec-04 18:42 248 9 gusting 14 8.9 9.4
2019-Dec-04 18:36 209 9 gusting 12 8.3 9.4
2019-Dec-04 18:30 210 6 gusting 11 7.8 9.4
2019-Dec-04 18:24 231 8 gusting 12 8.3 9.4
2019-Dec-04 18:18 230 9 gusting 11 8.3 9.4
2019-Dec-04 18:12 219 8 gusting 11 7.8 9.4
2019-Dec-04 18:06 226 9 gusting 13 7.8 9.4
2019-Dec-04 18:00 221 7 gusting 9 7.8 9.4
2019-Dec-04 17:54 218 7 gusting 9 7.2 8.9
2019-Dec-04 17:48 222 9 gusting 11 7.2 8.9
2019-Dec-04 17:42 221 7 gusting 11 7.2 8.9
2019-Dec-04 17:36 210 6 gusting 13 7.2 8.9
2019-Dec-04 17:30 217 9 gusting 13 7.2 8.9
2019-Dec-04 17:24 238 8 gusting 12 7.8 8.9
2019-Dec-04 17:18 248 9 gusting 12 7.2 8.9
2019-Dec-04 17:12 245 11 gusting 13 7.2 8.9
2019-Dec-04 17:06 243 12 gusting 15 7.2 8.9
2019-Dec-04 17:00 228 9 gusting 11 7.2 8.9
2019-Dec-04 16:54 210 9 gusting 11 7.2 8.9
2019-Dec-04 16:48 203 6 gusting 8 6.7 8.9
2019-Dec-04 16:42 233 6 gusting 9 7.2 8.9
2019-Dec-04 16:36 221 8 gusting 11 7.2 8.9
2019-Dec-04 16:30 226 9 gusting 10 7.2 8.9
2019-Dec-04 16:24 219 8 gusting 11 6.7 8.9
2019-Dec-04 16:18 239 6 gusting 10 7.2 8.9
2019-Dec-04 16:12 232 7 gusting 9 7.2 8.9
2019-Dec-04 16:06 227 8 gusting 9 7.2 8.9
2019-Dec-04 16:00 233 6 gusting 8 6.7 8.9
2019-Dec-04 15:54 238 6 gusting 8 6.7 8.9
2019-Dec-04 15:48 221 5 gusting 8 6.7 8.9
2019-Dec-04 15:42 237 7 gusting 9 6.7 8.9
2019-Dec-04 15:36 233 5 gusting 8 6.7 8.9
2019-Dec-04 15:30 220 6 gusting 7 6.1 8.9
2019-Dec-04 15:24 224 4 gusting 6 6.1 8.9
2019-Dec-04 15:18 235 4 gusting 6 6.1 8.9
2019-Dec-04 15:12 228 6 gusting 7 6.1 8.9
2019-Dec-04 15:06 241 7 gusting 8 6.1 8.9
2019-Dec-04 15:00 240 6 gusting 8 6.1 8.9
2019-Dec-04 14:54 228 6 gusting 8 5.6 8.9
2019-Dec-04 14:48 214 6 gusting 6 5.6 8.9
2019-Dec-04 14:42 215 6 gusting 7 5.6 8.9
2019-Dec-04 14:36 200 4 gusting 6 5.0 8.9
2019-Dec-04 14:30 227 5 gusting 6 5.6 8.9
2019-Dec-04 14:24 210 4 gusting 5 5.0 8.9
2019-Dec-04 14:18 207 3 gusting 4 5.0 8.9
2019-Dec-04 14:12 202 3 gusting 5 5.0 8.9
2019-Dec-04 14:06 202 4 gusting 5 5.0 8.9
2019-Dec-04 14:00 215 4 gusting 5 5.6 8.9
2019-Dec-04 13:54 227 4 gusting 4 6.7 8.9
2019-Dec-04 13:48 229 4 gusting 5 6.7 8.9
2019-Dec-04 13:42 235 4 gusting 6 6.7 8.9
2019-Dec-04 13:36 244 5 gusting 6 6.7 8.9
2019-Dec-04 13:30 235 4 gusting 5 7.2 8.9
2019-Dec-04 13:24 235 3 gusting 4 7.2 8.9
2019-Dec-04 13:18 246 3 gusting 4 7.2 8.9
2019-Dec-04 13:12 245 3 gusting 4 6.7 8.9
2019-Dec-04 13:06 254 3 gusting 4 6.7 8.9
2019-Dec-04 13:00 252 3 gusting 3 6.7 8.9
2019-Dec-04 12:54 236 2 gusting 4 5.6 8.9
2019-Dec-04 12:48 233 4 gusting 5 5.6 8.9
2019-Dec-04 12:42 228 4 gusting 4 5.0 8.9
2019-Dec-04 12:36 262 3 gusting 4 4.4 8.9
2019-Dec-04 12:30 246 3 gusting 3 4.4 8.9
2019-Dec-04 12:24 229 2 gusting 3 3.9 8.9
2019-Dec-04 12:18 241 0 gusting 1 3.3 8.9
2019-Dec-04 12:12 325 1 gusting 1 3.3 8.9
2019-Dec-04 12:06 317 0 gusting 1 3.3 8.9
2019-Dec-04 12:00 328 2 gusting 3 3.3 8.9
2019-Dec-04 11:54 336 2 gusting 3 3.3 8.9
2019-Dec-04 11:48 017 0 gusting 1 3.9 8.9
2019-Dec-04 11:42 121 0 gusting 0 3.9 8.9
2019-Dec-04 11:36 251 3.9 8.9
2019-Dec-04 11:30 176 1 gusting 1 3.9 8.9
2019-Dec-04 11:24 162 3.9 9.4
2019-Dec-04 11:18 234 3.9 9.4
2019-Dec-04 11:12 234 3.9 9.4
2019-Dec-04 11:06 305 3.9 9.4
2019-Dec-04 11:00 323 1 gusting 1 3.9 9.4
2019-Dec-04 10:54 283 0 gusting 1 3.9 9.4
2019-Dec-04 10:48 293 0 gusting 1 3.9 9.4
2019-Dec-04 10:42 328 1 gusting 1 3.9 9.4
2019-Dec-04 10:36 008 1 gusting 2 3.9 9.4
2019-Dec-04 10:30 358 1 gusting 2 3.9 9.4
2019-Dec-04 10:24 358 1 gusting 2 3.9 9.4
2019-Dec-04 10:18 338 1 gusting 3 3.9 9.4
2019-Dec-04 10:12 338 3 gusting 6 3.9 9.4
2019-Dec-04 10:06 354 4 gusting 6 3.9 9.4
2019-Dec-04 10:00 353 5 gusting 6 3.9 9.4
2019-Dec-04 09:54 008 4 gusting 7 3.9 9.4
2019-Dec-04 09:48 358 7 gusting 9 3.9 9.4
2019-Dec-04 09:42 353 6 gusting 10 3.9 9.4
2019-Dec-04 09:36 348 6 gusting 9 3.9 9.4
2019-Dec-04 09:30 343 6 gusting 11 4.4 9.4
2019-Dec-04 09:24 341 7 gusting 11 4.4 9.4
2019-Dec-04 09:18 326 8 gusting 11 4.4 9.4
2019-Dec-04 09:12 332 5 gusting 6 4.4 9.4
2019-Dec-04 09:06 333 1 gusting 4 3.3 9.4
2019-Dec-04 09:00 336 1 gusting 2 3.3 9.4
2019-Dec-04 08:54 354 2 gusting 3 3.3 9.4
2019-Dec-04 08:48 352 2 gusting 2 3.3 9.4
2019-Dec-04 08:42 352 2 gusting 2 3.3 9.4
2019-Dec-04 08:36 327 1 gusting 1 3.3 9.4
2019-Dec-04 08:30 343 1 gusting 2 3.3 9.4
2019-Dec-04 08:24 340 1 gusting 2 3.3 9.4
2019-Dec-04 08:18 341 1 gusting 1 3.9 9.4
2019-Dec-04 08:12 351 0 gusting 1 3.3 9.4
2019-Dec-04 08:06 337 1 gusting 1 3.3 9.4
2019-Dec-04 08:00 337 1 gusting 1 3.3 9.4
2019-Dec-04 07:54 337 1 gusting 1 3.9 9.4
2019-Dec-04 07:48 349 1 gusting 2 3.9 9.4
2019-Dec-04 07:42 347 1 gusting 2 3.9 9.4
2019-Dec-04 07:36 341 1 gusting 2 3.9 9.4
2019-Dec-04 07:30 352 0 gusting 1 3.9 9.4
2019-Dec-04 07:24 355 0 gusting 1 3.9 9.4
2019-Dec-04 07:18 015 1 gusting 1 3.9 9.4
2019-Dec-04 07:12 020 0 gusting 0 3.9 9.4
2019-Dec-04 07:06 324 3.9 9.4
2019-Dec-04 07:00 324 0 gusting 1 3.9 9.4
2019-Dec-04 06:54 350 2 gusting 2 3.9 9.4
2019-Dec-04 06:48 360 1 gusting 1 3.9 9.4
2019-Dec-04 06:42 005 0 gusting 1 3.9 9.4
2019-Dec-04 06:36 033 1 gusting 1 3.9 9.4
2019-Dec-04 06:30 357 1 gusting 1 4.4 9.4
2019-Dec-04 06:24 004 0 gusting 1 4.4 9.4
2019-Dec-04 06:18 352 3.9 9.4
2019-Dec-04 06:12 330 1 gusting 1 3.9 9.4
2019-Dec-04 06:06 339 0 gusting 1 3.9 9.4
2019-Dec-04 06:00 337 1 gusting 1 3.9 9.4
2019-Dec-04 05:54 335 1 gusting 2 3.9 9.4
2019-Dec-04 05:48 332 2 gusting 3 3.9 9.4
2019-Dec-04 05:42 337 2 gusting 3 3.9 9.4
2019-Dec-04 05:36 341 3 gusting 3 4.4 9.4
2019-Dec-04 05:30 350 3 gusting 3 4.4 9.4
2019-Dec-04 05:24 326 1 gusting 2 4.4 9.4
2019-Dec-04 05:18 321 1 gusting 2 4.4 9.4
2019-Dec-04 05:12 315 2 gusting 3 4.4 9.4
2019-Dec-04 05:06 317 3 gusting 4 4.4 9.4
2019-Dec-04 05:00 294 1 gusting 2 4.4 9.4
2019-Dec-04 04:54 295 1 gusting 2 4.4 9.4
2019-Dec-04 04:48 328 3 gusting 5 4.4 9.4
2019-Dec-04 04:42 305 3 gusting 5 4.4 9.4
2019-Dec-04 04:36 315 3 gusting 5 4.4 9.4
2019-Dec-04 04:30 321 4 gusting 5 3.9 9.4
2019-Dec-04 04:24 315 3 gusting 4 3.9 9.4
2019-Dec-04 04:18 325 3 gusting 4 3.3 9.4
2019-Dec-04 04:12 339 3 gusting 3 3.9 9.4
2019-Dec-04 04:06 344 2 gusting 2 3.9 9.4
2019-Dec-04 04:00 339 1 gusting 1 4.4 9.4
2019-Dec-04 03:54 347 0 gusting 1 5.0 9.4
2019-Dec-04 03:48 247 0 gusting 1 5.0 9.4
2019-Dec-04 03:42 256 0 gusting 2 5.0 9.4
2019-Dec-04 03:36 252 1 gusting 3 5.0 9.4
2019-Dec-04 03:30 227 1 gusting 2 5.0 9.4
2019-Dec-04 03:24 198 2 gusting 3 5.0 9.4
2019-Dec-04 03:18 353 5.0 8.9
2019-Dec-04 03:12 340 0 gusting 1 5.0 8.9
2019-Dec-04 03:06 326 0 gusting 1 5.0 8.9
2019-Dec-04 03:00 304 0 gusting 1 5.0 8.9
2019-Dec-04 02:54 300 0 gusting 1 5.0 8.9
2019-Dec-04 02:48 259 0 gusting 1 5.0 8.9
2019-Dec-04 02:42 359 5.0 8.9
2019-Dec-04 02:36 009 0 gusting 1 5.6 8.9
2019-Dec-04 02:30 306 0 gusting 1 5.6 8.9
2019-Dec-04 02:24 319 5.6 8.9
2019-Dec-04 02:18 319 1 gusting 2 5.6 8.9
2019-Dec-04 02:12 332 1 gusting 2 5.0 8.9
2019-Dec-04 02:06 317 2 gusting 2 5.0 8.9
2019-Dec-04 02:00 333 1 gusting 4 5.0 8.9
2019-Dec-04 01:54 324 3 gusting 4 5.0 8.9
2019-Dec-04 01:48 321 2 gusting 4 5.0 8.9
2019-Dec-04 01:42 332 1 gusting 1 5.0 8.9
2019-Dec-04 01:36 332 1 gusting 4 5.0 8.9
2019-Dec-04 01:30 343 3 gusting 3 5.0 8.9
2019-Dec-04 01:24 352 2 gusting 3 5.0 8.9
2019-Dec-04 01:18 356 2 gusting 3 5.0 8.9
2019-Dec-04 01:12 336 2 gusting 3 5.6 8.9
2019-Dec-04 01:06 298 1 gusting 2 5.6 8.9
2019-Dec-04 01:00 294 0 gusting 2 5.6 8.9